Location: Berlin
(52.5171°N, 13.3759°E)
Time: 21:55:45
(UTC+01:00)

ISS - Pass Details

Date: 11 January 2018
Orbit: 401 x 407 km, 51.6° (Epoch: 17 January)

Event Time Altitude Azimuth Distance (km) Brightness Sun altitude
Exits shadow 07:14:51 - 262° (W) 1,611 -1.3 -8.5°
Reaches altitude 10° 07:15:23 10° 256° (WSW) 1,465 -1.5 -8.4°
Maximum altitude 07:17:24 15° 217° (SW) 1,177 -1.6 -8.1°
Drops below altitude 10° 07:19:26 10° 179° (S) 1,461 -0.6 -7.8°
Sets 07:22:05 0° 156° (SSE) 2,318 0.9 -7.5°
